STARLINK-1265, 45406

Orbit data source: Space-Track

STARLINK-1265, 45406 is a payload satellite owned by SpaceX/Seattle (US) in LEO that was launched on Wed, 18 Mar 2020 UTC via an FALCON 9 launch vehicle from the Air Force Eastern Test Range (AFETR). Payload-class satellites include a variety of spacecraft equipped with specific instruments for various scientific and technological missions. These include communications satellites like Starlink; space stations such as the ISS; scientific satellites like the Hubble; Earth observation satellites from companies like Planet Labs, Umbra, and HawkEye 360; GPS; miniature CubeSats for education and research; and military/defense satellites.

Loading next visibility...
Identifier
45406, 2020-019AY
Orbit
LEO
Country
Flag of USUS
Related business
Manufacturer
SpaceX/Seattle
Mission
Partially operational Commercial Communications
Bus & Motor
STARLINK, Unknown motor
Mass
260 kg wet, ~248 kg dry
Launch date (UTC)
2020-03-18 (6 years ago)
Launch vehicle
FALCON 9
Launch site
Air Force Eastern Test Range (AFETR)
Object type
Payload
Rocket body
Debris
Shape & HBR
Box + 1 Pan, 10.1 m
Radar Cross Section
13.562 m², Large (>1 m²)

Expand to show TLE details & history
Last TLE update: 7 hours ago

TLE from 7 hours ago
0 STARLINK-1265
1 45406U 20019AY  26178.48994299  .00057219  00000-0  14048-2 0  9992
2 45406  53.1570 335.7136 0001431 146.8700 213.2395 15.40155505346835
Epoch: 2026-06-27T11:45Z
TLE epoch observation values (Epoch: 2026-06-27T11:45:31.074Z)
Latitude
-0°
Longitude
-116.26923°
Altitude
447.37 km
Speed
7.645 km/s
True Right ascension
22h 22m 51s
True Declination
0° 00' 00"
Sunlit
Object was in full shadow at epoch
Visualization orbit readout
Latitude
Unknown
Longitude
Unknown
Altitude
Unknown
Speed
Unknown
Apparent Right ascension
Unknown
Apparent Declination
Unknown
Sunlit
N/A
Visualization observer readout
Local Sidereal Time
05:42:50
Azimuth
Unknown
Elevation
Unknown
Doppler factor
Unknown
Orbital elements
Apogee altitude
446.884 km
Perigee altitude
444.931 km
Semi-major axis
6,824.045 km
Eccentricity
0.00014
Inclination
53.157°
RAAN
335.7136°
Arg. of periapsis
146.87°
True anomaly
213.23051°
Mean anomaly
213.2395°
Eccentric anomaly
213.23501°
Mean motion
3.85017 °/min
Orbital period
93.5 mins
BSTAR
0.0014048
Loading maneuver chart data...
Computing Atmospheric mass density...

Documentation

Showing up to 5 results
|